This is the latest recevied weather packets stored in our database for station/object KF6GPE. If no packets are shown the sender has not sent any weather packets the latest 10 day(s).
| Time | Temp. | Humidity | Pressure | Rain* | Wind** | Luminosity | Snow |
|---|---|---|---|---|---|---|---|
| 1777937403 | 14.44° C | 74% | 987.9 hPa | 0 mm | - | 1006 W/m² | - |
| 1777936803 | 15° C | 72% | 987.9 hPa | 0 mm | - | 1006 W/m² | - |
| 1777936202 | 15° C | 72% | 988.1 hPa | 0 mm | - | 1042 W/m² | - |
| 1777935604 | 15° C | 72% | 988.1 hPa | 0 mm | - | 1014 W/m² | - |
| 1777935003 | 14.44° C | 73% | 988 hPa | 0 mm | - | 1018 W/m² | - |
| 1777934403 | 14.44° C | 76% | 988.2 hPa | 0 mm | - | 1023 W/m² | - |
| 1777933802 | 13.89° C | 74% | 988.2 hPa | 0 mm | - | 1016 W/m² | - |
| 1777933203 | 14.44° C | 72% | 988.2 hPa | 0 mm | - | 1006 W/m² | - |
| 1777932603 | 14.44° C | 74% | 988.4 hPa | 0 mm | - | 1009 W/m² | - |
| 1777932004 | 14.44° C | 75% | 988.5 hPa | 0 mm | - | 1006 W/m² | - |
| 1777931403 | 14.44° C | 74% | 988.5 hPa | 0 mm | - | 1005 W/m² | - |
| 1777930806 | 15° C | 73% | 988.4 hPa | 0 mm | - | 1006 W/m² | - |
| 1777930203 | 15° C | 73% | 988.5 hPa | 0 mm | - | 1076 W/m² | - |
| 1777929604 | 15° C | 73% | 988.5 hPa | 0 mm | - | 1022 W/m² | - |
| 1777929003 | 14.44° C | 73% | 988.6 hPa | 0 mm | - | 1037 W/m² | - |
| 1777928404 | 15° C | 73% | 988.7 hPa | 0 mm | - | 1013 W/m² | - |
| 1777927802 | 14.44° C | 74% | 988.6 hPa | 0 mm | - | 1012 W/m² | - |
| 1777927203 | 15° C | 74% | 988.6 hPa | 0 mm | - | 1007 W/m² | - |
| 1777926603 | 15° C | 71% | 988.5 hPa | 0 mm | - | 1016 W/m² | - |
| 1777926003 | 15° C | 71% | 988.7 hPa | 0 mm | - | 1021 W/m² | - |
| 1777925402 | 14.44° C | 73% | 988.6 hPa | 0 mm | - | 1016 W/m² | - |
| 1777924804 | 15° C | 74% | 988.6 hPa | 0 mm | - | 1014 W/m² | - |
| 1777924204 | 15° C | 74% | 988.6 hPa | 0 mm | - | 1013 W/m² | - |
| 1777923603 | 15.56° C | 72% | 988.7 hPa | 0 mm | - | 1018 W/m² | - |
| 1777923003 | 15° C | 75% | 988.6 hPa | 0 mm | - | 1029 W/m² | - |
* Rain latest hour (hover to see other rain measurements)
** Current wind speed in m/s (hover to see current wind gust speed)